DW6888 Weather Reports


time (UTC)temp
C
wind
direction
speed
KPH
gust
KPH
rain 1hr
cm
rain 24hr
cm
rain mn
cm
humidity
%
barometer
mb
20260505153305 26 156 1.6 14.5 0.00 0.00 0.00 67 1013.3
20260505152805 26 175 4.8 14.5 0.00 0.00 0.00 67 1013.3
20260505151305 26 169 3.2 12.9 0.00 0.00 0.00 67 1013.2
20260505150805 26 195 6.4 12.9 0.00 0.00 0.00 67 1013.3
20260505150304 26 149 3.2 12.9 0.00 0.00 0.00 68 1013.1
20260505140305 24 162 4.8 11.3 0.00 0.00 0.00 73 1013.4
20260505130304 22 157 1.6 4.8 0.00 0.00 0.00 79 1012.9
20260505124304 21 131 3.2 4.8 0.00 0.00 0.00 81 1012.6
20260505123805 21 128 3.2 8.0 0.00 0.00 0.00 81 1012.5
20260505122805 20 134 1.6 4.8 0.00 0.00 0.00 82 1012.4
20260505122305 20 128 1.6 4.8 0.00 0.00 0.00 83 1012.4
20260505121805 19 134 0.0 1.6 0.00 0.00 0.00 85 1012.3
20260505121305 18 130 0.0 3.2 0.00 0.00 0.00 86 1012.3
20260505120305 17 139 0.0 1.6 0.00 0.00 0.00 89 1012.4
20260505115805 17 207 0.0 0.0 0.00 0.00 0.00 90 1012.5
20260505115305 17 207 0.0 0.0 0.00 0.00 0.00 90 1012.5
20260505114805 16 207 0.0 0.0 0.00 0.00 0.00 90 1012.5
20260505114304 16 207 0.0 0.0 0.00 0.00 0.00 90 1012.4
20260505113805 16 207 0.0 0.0 0.00 0.00 0.00 90 1012.5
20260505112804 16 207 0.0 0.0 0.00 0.00 0.00 90 1012.3
20260505112305 16 207 0.0 0.0 0.00 0.00 0.00 90 1012.3
20260505111304 15 207 0.0 0.0 0.00 0.00 0.00 89 1012.5
20260505110804 15 207 0.0 0.0 0.00 0.00 0.00 89 1012.4
20260505110305 15 207 0.0 0.0 0.00 0.00 0.00 89 1012.4
20260505101804 15 207 0.0 0.0 0.00 0.00 0.00 88 1012.5
20260505101304 15 207 0.0 0.0 0.00 0.00 0.00 88 1012.5
20260505100805 15 207 0.0 0.0 0.00 0.00 0.00 88 1012.6
20260505100305 16 207 0.0 0.0 0.00 0.00 0.00 88 1012.5
20260505095305 16 207 0.0 0.0 0.00 0.00 0.00 89 1012.4
20260505094804 16 207 0.0 0.0 0.00 0.00 0.00 88 1012.4
20260505094305 16 207 0.0 0.0 0.00 0.00 0.00 88 1012.4
20260505093805 16 207 0.0 0.0 0.00 0.00 0.00 89 1012.4
20260505093304 16 207 0.0 0.0 0.00 0.00 0.00 88 1012.2
20260505092804 16 207 0.0 0.0 0.00 0.00 0.00 88 1012.2
20260505092305 16 207 0.0 0.0 0.00 0.00 0.00 88 1012.2
20260505091805 16 207 0.0 0.0 0.00 0.00 0.00 88 1012.2
20260505091304 16 207 0.0 0.0 0.00 0.00 0.00 88 1012.3
20260505090805 16 207 0.0 0.0 0.00 0.00 0.00 88 1012.3
20260505090304 16 207 0.0 0.0 0.00 0.00 0.00 88 1012.3
20260505085805 16 207 0.0 0.0 0.00 0.00 0.00 87 1012.3
20260505085305 16 207 0.0 0.0 0.00 0.00 0.00 87 1012.4
20260505084804 16 207 0.0 0.0 0.00 0.00 0.00 87 1012.3
20260505083804 16 207 0.0 0.0 0.00 0.00 0.00 87 1012.4
20260505083304 16 207 0.0 0.0 0.00 0.00 0.00 87 1012.3
20260505082804 16 207 0.0 0.0 0.00 0.00 0.00 87 1012.3
20260505082305 16 207 0.0 0.0 0.00 0.00 0.00 87 1012.4
20260505081804 16 207 0.0 0.0 0.00 0.00 0.00 87 1012.4
20260505081305 16 207 0.0 0.0 0.00 0.00 0.00 87 1012.3
20260505080805 16 207 0.0 0.0 0.00 0.00 0.00 87 1012.4
20260505075805 16 207 0.0 0.0 0.00 0.00 0.00 87 1012.4
20260505075304 16 207 0.0 0.0 0.00 0.00 0.00 87 1012.5
20260505074805 16 207 0.0 0.0 0.00 0.00 0.00 87 1012.5
20260505074304 15 207 0.0 0.0 0.00 0.00 0.00 87 1012.5
20260505073804 15 207 0.0 0.0 0.00 0.00 0.00 87 1012.6
20260505073305 15 207 0.0 0.0 0.00 0.00 0.00 87 1012.6
20260505072804 15 207 0.0 0.0 0.00 0.00 0.00 87 1012.5
20260505071804 15 207 0.0 0.0 0.00 0.00 0.00 86 1012.7
20260505071304 15 207 0.0 0.0 0.00 0.00 0.00 86 1012.7
20260505070805 15 207 0.0 0.0 0.00 0.00 0.00 87 1012.8
20260505070304 15 207 0.0 0.0 0.00 0.00 0.00 86 1013.0
20260505065804 15 207 0.0 0.0 0.00 0.00 0.00 86 1013.0
20260505065305 15 207 0.0 0.0 0.00 0.00 0.00 86 1013.2
20260505064804 15 207 0.0 0.0 0.00 0.00 0.00 86 1013.2
20260505064304 15 207 0.0 0.0 0.00 0.00 0.00 85 1013.3
20260505063804 16 207 0.0 0.0 0.00 0.00 0.00 86 1013.4
20260505063304 16 207 0.0 0.0 0.00 0.00 0.00 86 1013.5
20260505061804 16 207 0.0 0.0 0.00 0.00 0.00 85 1013.5
20260505061304 16 207 0.0 0.0 0.00 0.00 0.00 85 1013.3
20260505060804 16 207 0.0 0.0 0.00 0.00 0.00 84 1013.3
20260505060304 16 207 0.0 0.0 0.00 0.00 0.00 84 1013.4
20260505055804 16 207 0.0 0.0 0.00 0.00 0.00 84 1013.4
20260505055304 16 207 0.0 0.0 0.00 0.00 0.00 83 1013.4
20260505054304 16 207 0.0 0.0 0.00 0.00 0.00 83 1013.5
20260505053304 16 209 0.0 1.6 0.00 0.00 0.00 84 1013.5
20260505052804 16 213 0.0 0.0 0.00 0.00 0.00 84 1013.2
20260505052304 16 213 0.0 0.0 0.00 0.00 0.00 83 1013.2
20260505051805 16 213 0.0 0.0 0.00 0.00 0.00 83 1013.2
20260505051304 16 213 0.0 0.0 0.00 0.00 0.00 82 1013.2
20260505050841 16 213 0.0 0.0 0.00 0.00 0.00 82 1013.3
20260505050304 16 213 0.0 0.0 0.00 0.00 0.00 80 1013.5
20260505040804 17 204 0.0 0.0 0.00 0.00 0.00 78 1013.9
20260505035304 17 198 0.0 0.0 0.00 0.00 0.00 77 1013.9
20260505034804 17 198 0.0 0.0 0.00 0.00 0.00 77 1013.9
20260505034304 18 198 0.0 0.0 0.00 0.00 0.00 77 1013.9
20260505033804 18 174 0.0 0.0 0.00 0.00 0.00 77 1013.8
20260505033304 18 127 0.0 0.0 0.00 0.00 0.00 76 1013.8
20260505032804 18 127 0.0 0.0 0.00 0.00 0.00 75 1013.7
20260505031804 18 212 0.0 0.0 0.00 0.00 0.00 74 1013.9
20260505031305 18 204 0.0 0.0 0.00 0.00 0.00 74 1014.0
20260505030804 18 212 0.0 0.0 0.00 0.00 0.00 73 1013.9
20260505030303 18 212 0.0 0.0 0.00 0.00 0.00 72 1013.9
20260505025305 19 127 0.0 1.6 0.00 0.00 0.00 72 1013.9
20260505024804 19 173 0.0 1.6 0.00 0.00 0.00 72 1014.0
20260505024305 19 120 0.0 0.0 0.00 0.00 0.00 71 1013.8
20260505023804 19 125 0.0 0.0 0.00 0.00 0.00 70 1013.8
20260505023304 19 188 0.0 0.0 0.00 0.00 0.00 70 1013.8
20260505022804 19 125 0.0 0.0 0.00 0.00 0.00 69 1013.9
20260505021804 19 191 0.0 3.2 0.00 0.00 0.00 69 1013.9
20260505020804 20 124 0.0 3.2 0.00 0.00 0.00 67 1013.8
20260505020304 20 138 0.0 3.2 0.00 0.00 0.00 67 1013.8
20260505015305 20 127 0.0 3.2 0.00 0.00 0.00 66 1013.7
20260505014805 20 121 1.6 4.8 0.00 0.00 0.00 65 1013.6
20260505014304 20 163 1.6 9.7 0.00 0.00 0.00 65 1013.5
20260505013304 20 179 0.0 0.0 0.00 0.00 0.00 64 1013.7
20260505012804 20 195 0.0 0.0 0.00 0.00 0.00 63 1013.6
20260505012304 20 180 0.0 4.8 0.00 0.00 0.00 63 1013.5
20260505011804 20 130 1.6 8.0 0.00 0.00 0.00 63 1013.5
20260505011304 20 115 0.0 3.2 0.00 0.00 0.00 63 1013.4
20260505010803 20 133 1.6 4.8 0.00 0.00 0.00 62 1013.4
20260505010304 21 131 1.6 3.2 0.00 0.00 0.00 61 1013.6
20260505005304 21 132 1.6 4.8 0.00 0.00 0.00 60 1013.8
20260505004804 21 138 1.6 3.2 0.00 0.00 0.00 59 1013.8
20260505004303 21 179 0.0 4.8 0.00 0.00 0.00 60 1013.8
20260505003303 21 136 1.6 4.8 0.00 0.00 0.00 57 1013.9
20260505002304 22 180 0.0 4.8 0.00 0.00 0.00 56 1013.9
20260505001804 22 140 1.6 9.7 0.00 0.00 0.00 56 1013.8
20260505001304 22 144 3.2 11.3 0.00 0.00 0.00 55 1013.7
20260505000804 22 130 1.6 11.3 0.00 0.00 0.00 55 1013.7
20260505000304 22 143 4.8 11.3 0.00 0.00 0.00 54 1013.7
20260504235804 22 143 3.2 8.0 0.00 0.00 0.00 54 1013.7
20260504235304 22 162 3.2 4.8 0.00 0.00 0.00 53 1013.9
20260504234304 22 147 3.2 9.7 0.00 0.00 0.00 51 1014.0
20260504233804 23 189 0.0 4.8 0.00 0.00 0.00 51 1014.1
20260504233304 23 169 0.0 4.8 0.00 0.00 0.00 52 1014.1
20260504232804 23 153 0.0 4.8 0.00 0.00 0.00 50 1014.0
20260504232304 23 132 3.2 8.0 0.00 0.00 0.00 48 1014.0
20260504231804 23 154 1.6 4.8 0.00 0.00 0.00 48 1014.1
20260504231304 23 189 1.6 4.8 0.00 0.00 0.00 48 1014.2
20260504230804 23 142 3.2 9.7 0.00 0.00 0.00 47 1014.2
20260504230304 23 222 1.6 4.8 0.00 0.00 0.00 47 1014.3
20260504225804 23 206 1.6 4.8 0.00 0.00 0.00 49 1014.3
20260504225304 23 187 3.2 9.7 0.00 0.00 0.00 47 1014.4
20260504224804 23 143 1.6 14.5 0.00 0.00 0.00 46 1014.4